�N����,����,�~����,�C��,���x,�C��,����,���ϕ���,�ő�u�ԕ���,�ő厞����,���˗�,�I�_���x,�n�����x,�ő啗���N��,DTYPE
"17/09/07","00:10",0.0,23.6,92.3,1001.2,311.7,1.0,1.4,326.8,0.00,22.3,24.4,"00:06:48",1
"17/09/07","00:20",0.0,23.5,92.3,1001.0,300.2,0.8,1.4,332.8,0.00,22.2,24.3,"00:10:56",1
"17/09/07","00:30",0.0,23.5,92.4,1000.8,310.2,1.0,1.3,320.1,0.00,22.2,24.5,"00:25:44",1
"17/09/07","00:40",0.0,23.4,92.6,1000.8,321.3,1.1,1.6,333.7,0.00,22.2,24.3,"00:32:40",1
"17/09/07","00:50",0.0,23.4,92.8,1000.3,291.2,0.7,1.1,311.4,0.00,22.2,24.4,"00:40:48",1
"17/09/07","01:00",0.0,23.4,92.8,1000.3,313.3,1.2,2.2,331.8,0.00,22.2,24.4,"00:58:48",1
"17/09/07","01:10",0.0,23.5,92.9,1000.3,320.2,1.1,1.6,337.2,0.00,22.3,24.2,"01:00:32",1
"17/09/07","01:20",0.0,23.5,93.0,1000.5,305.6,0.8,1.2,314.2,0.00,22.3,24.3,"01:11:12",1
"17/09/07","01:30",0.0,23.5,92.9,1000.3,315.7,0.8,1.2,312.6,0.00,22.3,24.3,"01:22:48",1
"17/09/07","01:40",0.0,23.5,93.1,1000.0,300.5,0.8,1.2,318.5,0.00,22.4,24.4,"01:30:32",1
"17/09/07","01:50",0.0,23.5,92.9,1000.3,301.3,1.0,1.2,268.6,0.00,22.3,24.4,"01:49:44",1
"17/09/07","02:00",0.0,23.5,93.0,999.8,302.0,0.8,1.7,314.8,0.00,22.3,24.3,"01:54:40",1
"17/09/07","02:10",0.2,23.5,93.1,999.6,279.5,0.6,1.4,321.2,0.00,22.4,24.2,"02:01:12",1
"17/09/07","02:20",0.0,23.4,93.2,999.3,288.5,0.7,0.9,265.3,0.00,22.3,24.3,"02:11:52",1
"17/09/07","02:30",0.0,23.5,93.5,999.1,320.6,1.0,1.4,324.1,0.00,22.4,24.2,"02:23:36",1
"17/09/07","02:40",0.0,23.4,93.6,999.1,297.7,0.7,1.2,320.5,0.00,22.3,24.4,"02:34:56",1
"17/09/07","02:50",0.0,23.3,93.8,999.3,282.7,0.7,1.0,300.7,0.00,22.3,24.3,"02:44:56",1
"17/09/07","03:00",0.0,23.3,93.9,999.3,304.0,1.0,2.9,333.8,0.00,22.3,24.3,"02:59:36",1
"17/09/07","03:10",0.0,23.3,94.1,998.9,331.8,0.7,3.6,334.7,0.00,22.3,24.3,"03:00:08",1
"17/09/07","03:20",0.0,23.3,94.2,999.1,282.9,0.8,1.8,322.1,0.00,22.4,24.5,"03:11:28",1
"17/09/07","03:30",0.0,23.3,94.3,999.3,312.5,1.1,2.2,336.1,0.00,22.4,24.2,"03:24:08",1
"17/09/07","03:40",0.0,23.3,94.4,999.6,297.8,0.7,1.6,313.2,0.00,22.4,24.5,"03:36:48",1
"17/09/07","03:50",0.0,23.3,94.5,999.6,257.6,0.2,1.3,328.1,0.00,22.4,24.3,"03:40:40",1
"17/09/07","04:00",0.0,23.3,94.5,999.6,292.0,0.8,1.6,328.3,0.00,22.4,24.0,"03:57:28",1
"17/09/07","04:10",0.0,23.2,94.6,999.3,272.8,0.3,1.1,332.5,0.00,22.3,24.1,"04:09:44",1
"17/09/07","04:20",0.0,23.2,94.8,999.3,335.0,0.3,1.0,300.8,0.00,22.4,24.3,"04:10:08",1
"17/09/07","04:30",0.0,23.2,94.6,999.3,295.8,0.5,1.0,311.9,0.00,22.3,24.3,"04:28:32",1
"17/09/07","04:40",0.0,23.1,94.8,999.6,304.7,0.6,0.8,316.9,0.00,22.3,24.1,"04:30:40",1
"17/09/07","04:50",0.0,23.1,94.9,999.3,323.5,0.7,1.0,332.0,0.00,22.3,24.1,"04:48:00",1
"17/09/07","05:00",0.0,23.1,95.1,999.3,323.2,0.8,1.3,332.4,0.00,22.3,24.1,"04:54:32",1
"17/09/07","05:10",0.0,23.0,95.1,999.3,323.3,0.6,1.1,332.9,0.00,22.2,24.1,"05:00:56",1
"17/09/07","05:20",0.0,22.9,95.1,999.3,336.1,0.6,1.0,346.3,0.00,22.1,23.9,"05:14:08",1
"17/09/07","05:30",0.0,22.9,95.2,999.3,291.7,0.5,1.0,320.8,0.00,22.1,24.2,"05:20:40",1
"17/09/07","05:40",0.0,22.9,95.4,999.1,292.1,0.5,0.9,315.9,0.00,22.2,24.1,"05:39:44",1
"17/09/07","05:50",0.0,23.1,95.5,999.1,273.8,0.5,0.9,314.2,0.00,22.4,23.8,"05:40:40",1
"17/09/07","06:00",0.0,23.2,95.5,999.3,299.7,0.5,1.1,311.6,0.00,22.5,24.0,"05:59:44",1
"17/09/07","06:10",0.0,23.2,95.5,999.1,308.3,0.6,1.0,335.7,0.00,22.5,23.9,"06:00:08",1
"17/09/07","06:20",0.0,23.3,95.6,999.3,335.6,0.7,1.1,329.7,0.00,22.6,24.2,"06:15:36",1
"17/09/07","06:30",0.2,23.3,95.5,999.3,295.9,0.6,1.1,333.8,0.00,22.6,24.1,"06:22:40",1
"17/09/07","06:40",0.0,23.4,95.6,998.6,271.2,0.2,0.6,321.6,0.00,22.7,24.1,"06:35:12",1
"17/09/07","06:50",0.0,23.5,95.7,999.1,316.4,0.6,1.1,320.4,0.00,22.8,24.0,"06:48:00",1
"17/09/07","07:00",0.0,23.6,95.5,999.3,325.8,0.7,1.2,325.1,0.01,22.9,24.2,"06:50:24",1
"17/09/07","07:10",0.0,23.8,95.7,999.1,299.5,0.2,1.0,330.4,0.03,23.1,24.2,"07:01:28",1
"17/09/07","07:20",0.0,24.1,95.5,998.9,286.0,0.2,0.8,332.2,0.05,23.4,24.3,"07:12:24",1
"17/09/07","07:30",0.0,24.2,95.1,999.1,245.2,0.2,0.6,269.2,0.05,23.4,24.3,"07:21:12",1
"17/09/07","07:40",0.0,24.2,95.0,998.9,204.5,0.1,0.9,231.3,0.04,23.4,24.3,"07:30:40",1
"17/09/07","07:50",0.0,24.4,94.9,998.9,285.0,0.3,0.6,327.1,0.05,23.6,24.3,"07:47:36",1
"17/09/07","08:00",0.0,24.8,94.6,998.9,357.3,0.5,1.3,2.6,0.07,23.9,24.3,"07:57:20",1
"17/09/07","08:10",0.0,24.9,93.8,998.9,13.6,0.3,1.2,340.9,0.09,23.9,24.4,"08:09:56",1
"17/09/07","08:20",0.0,25.1,93.0,998.9,321.2,0.7,1.2,345.9,0.05,23.9,24.4,"08:10:16",1
"17/09/07","08:30",0.0,25.0,92.2,998.9,303.2,0.6,0.9,242.6,0.01,23.7,24.6,"08:21:28",1
"17/09/07","08:40",0.0,25.2,92.5,998.6,330.1,1.0,1.8,341.5,0.05,23.9,24.4,"08:37:20",1
"17/09/07","08:50",0.0,25.4,90.8,998.4,334.0,0.8,1.7,335.8,0.13,23.8,24.7,"08:46:48",1
"17/09/07","09:00",0.0,25.7,89.9,998.9,320.6,1.0,1.8,340.4,0.09,24.0,24.9,"08:54:48",1
"17/09/07","09:10",0.0,25.7,89.4,998.9,279.3,0.7,1.7,328.4,0.06,23.9,24.7,"09:03:52",1
"17/09/07","09:20",0.0,25.6,89.5,998.9,284.0,0.3,1.1,245.2,0.05,23.8,25.0,"09:11:44",1
"17/09/07","09:30",0.0,26.1,89.8,998.9,308.7,0.8,1.8,341.0,0.11,24.3,24.7,"09:22:08",1
"17/09/07","09:40",0.0,26.4,87.8,998.6,309.9,0.5,1.6,340.2,0.14,24.3,24.9,"09:37:20",1
"17/09/07","09:50",0.0,26.7,85.4,998.9,320.2,0.6,1.4,345.1,0.16,24.1,24.8,"09:45:28",1
"17/09/07","10:00",0.0,27.0,85.6,998.6,281.0,0.3,0.8,249.9,0.15,24.4,25.1,"09:53:36",1
"17/09/07","10:10",0.0,27.0,85.1,998.4,348.7,0.8,1.8,344.6,0.14,24.3,25.0,"10:03:44",1
"17/09/07","10:20",0.0,27.3,84.7,998.6,318.6,0.5,1.3,340.7,0.09,24.5,25.1,"10:18:16",1
"17/09/07","10:30",0.0,27.0,84.9,998.4,314.2,0.5,1.3,230.4,0.06,24.3,25.2,"10:24:08",1
"17/09/07","10:40",0.0,27.7,82.8,997.9,3.8,0.7,2.0,343.5,0.21,24.5,25.5,"10:39:20",1
"17/09/07","10:50",0.0,28.0,83.6,997.4,209.3,0.6,1.7,349.0,0.18,25.0,25.6,"10:40:08",1
"17/09/07","11:00",0.0,28.0,82.5,997.4,186.2,0.8,2.1,234.8,0.17,24.8,25.6,"10:56:32",1
"17/09/07","11:10",0.0,28.1,80.9,997.2,193.5,0.8,1.9,229.5,0.17,24.5,25.7,"11:07:52",1
"17/09/07","11:20",0.0,28.1,81.7,997.2,193.8,0.8,2.0,209.5,0.11,24.7,25.7,"11:14:16",1
"17/09/07","11:30",0.0,28.1,81.4,997.2,162.4,0.6,1.6,205.0,0.07,24.7,25.7,"11:26:08",1
"17/09/07","11:40",0.0,27.8,82.0,997.2,194.7,0.7,1.8,207.2,0.03,24.5,25.7,"11:35:44",1
"17/09/07","11:50",0.2,27.3,83.6,997.7,212.7,0.7,1.6,236.4,0.00,24.3,25.7,"11:45:28",1
"17/09/07","12:00",3.2,26.7,85.8,997.7,208.6,1.0,2.2,215.2,0.00,24.2,25.7,"11:50:02",1
"17/09/07","12:10",0.4,26.2,88.4,997.4,175.2,0.8,2.5,153.1,0.00,24.2,25.5,"12:03:12",1
"17/09/07","12:20",0.6,26.2,90.0,997.4,50.2,0.3,1.1,8.5,0.04,24.5,25.6,"12:19:44",1
"17/09/07","12:30",0.0,26.3,90.3,997.4,13.7,0.8,1.8,10.5,0.07,24.6,25.6,"12:22:32",1
"17/09/07","12:40",0.0,26.3,90.6,997.4,293.1,0.6,1.2,334.8,0.05,24.7,25.7,"12:33:12",1
"17/09/07","12:50",0.0,26.6,90.9,997.4,266.8,0.8,3.1,328.4,0.09,25.0,25.6,"12:46:16",1
"17/09/07","13:00",0.0,26.7,89.1,997.2,282.6,0.7,1.7,338.4,0.10,24.8,25.5,"12:59:52",1
"17/09/07","13:10",0.0,26.8,86.8,997.7,289.7,0.8,2.5,231.5,0.14,24.5,25.5,"13:01:36",1
"17/09/07","13:20",0.0,26.9,87.2,997.4,295.9,0.8,2.2,339.8,0.07,24.6,25.6,"13:17:52",1
"17/09/07","13:30",0.0,27.1,87.2,997.0,314.1,0.5,1.3,19.4,0.12,24.8,25.6,"13:21:28",1
"17/09/07","13:40",0.0,27.1,86.7,997.0,303.6,0.7,1.7,350.2,0.11,24.7,25.6,"13:36:48",1
"17/09/07","13:50",0.0,27.1,86.7,996.7,288.2,1.0,2.1,305.8,0.12,24.7,25.7,"13:46:48",1
"17/09/07","14:00",0.0,26.9,87.1,996.7,323.9,1.5,2.7,324.8,0.10,24.6,25.8,"13:56:16",1
"17/09/07","14:10",0.0,27.0,87.9,997.2,322.5,1.7,4.0,333.2,0.15,24.9,25.9,"14:00:56",1
"17/09/07","14:20",0.0,27.2,86.6,997.2,286.4,1.0,2.4,348.6,0.16,24.8,25.5,"14:17:20",1
"17/09/07","14:30",0.0,27.1,86.0,997.0,286.1,1.1,2.4,243.2,0.11,24.6,25.7,"14:23:52",1
"17/09/07","14:40",0.0,27.5,86.4,996.7,284.4,0.7,1.7,331.9,0.16,25.1,25.8,"14:39:52",1
"17/09/07","14:50",0.0,27.3,85.1,996.7,296.1,0.8,2.4,338.4,0.13,24.6,25.9,"14:47:04",1
"17/09/07","15:00",0.0,27.3,84.7,996.5,299.3,1.0,2.0,320.2,0.10,24.5,25.9,"14:59:28",1
"17/09/07","15:10",0.2,27.4,85.1,996.5,323.5,1.5,2.7,337.4,0.09,24.7,26.1,"15:07:28",1
"17/09/07","15:20",0.0,27.1,87.1,996.0,333.6,1.5,2.9,347.4,0.09,24.8,26.0,"15:14:00",1
"17/09/07","15:30",0.0,27.0,86.8,996.0,320.0,1.0,2.1,340.7,0.07,24.7,25.8,"15:20:08",1
"17/09/07","15:40",0.2,26.8,87.7,996.5,329.4,0.8,1.8,355.5,0.02,24.6,26.1,"15:32:24",1
"17/09/07","15:50",0.0,26.7,88.3,996.5,336.7,0.8,1.4,332.4,0.03,24.6,25.9,"15:48:16",1
"17/09/07","16:00",0.0,26.7,88.9,996.5,341.2,0.7,1.3,341.6,0.04,24.8,25.9,"15:50:32",1
"17/09/07","16:10",0.2,26.5,89.0,997.0,335.5,0.7,1.7,349.7,0.02,24.6,26.0,"16:04:08",1
"17/09/07","16:20",0.6,26.2,89.5,996.7,285.2,0.5,1.7,322.5,0.00,24.4,25.7,"16:19:20",1
"17/09/07","16:30",1.4,25.9,90.1,996.7,331.2,0.7,1.7,349.8,0.00,24.2,25.7,"16:27:04",1
"17/09/07","16:40",0.8,25.5,90.9,996.7,351.2,1.0,2.0,349.5,0.00,23.9,25.8,"16:33:04",1
"17/09/07","16:50",0.4,25.2,91.4,996.5,349.7,0.8,1.7,346.4,0.00,23.7,25.8,"16:45:44",1
"17/09/07","17:00",0.4,25.2,91.9,996.5,301.6,0.5,1.1,348.6,0.00,23.8,25.7,"16:58:00",1
"17/09/07","17:10",0.0,25.1,92.3,996.5,338.2,1.0,2.0,349.5,0.00,23.8,25.7,"17:06:56",1
"17/09/07","17:20",0.0,25.1,92.5,996.7,296.7,0.5,1.8,318.9,0.00,23.8,25.6,"17:14:32",1
"17/09/07","17:30",0.0,25.1,92.7,996.7,293.1,0.2,0.8,328.9,0.00,23.9,25.4,"17:20:08",1
"17/09/07","17:40",0.0,25.1,93.0,997.0,332.7,0.6,1.3,328.9,0.00,23.9,25.5,"17:39:36",1
"17/09/07","17:50",0.0,25.0,93.0,996.7,331.3,1.1,2.4,350.9,0.00,23.8,25.5,"17:45:36",1
"17/09/07","18:00",0.0,24.9,93.0,996.5,324.2,1.0,2.4,343.4,0.00,23.7,25.3,"17:58:24",1
"17/09/07","18:10",0.2,24.9,92.8,996.7,331.7,1.2,2.8,348.7,0.00,23.7,25.4,"18:02:56",1
"17/09/07","18:20",0.0,24.8,92.7,996.5,301.8,0.7,2.1,323.3,0.00,23.6,25.3,"18:11:12",1
"17/09/07","18:30",0.0,24.8,92.7,997.0,296.9,0.6,1.6,305.4,0.00,23.6,25.3,"18:23:36",1
"17/09/07","18:40",0.0,24.8,92.6,996.7,278.2,0.7,1.9,310.6,0.00,23.6,25.2,"18:33:36",1
"17/09/07","18:50",0.0,24.8,92.7,997.0,345.6,0.6,1.2,354.7,0.00,23.6,25.2,"18:41:44",1
"17/09/07","19:00",0.0,24.7,92.8,997.0,36.6,0.2,0.9,128.9,0.00,23.5,25.2,"18:58:48",1
"17/09/07","19:10",0.0,24.7,93.0,997.0,18.3,0.3,0.8,246.7,0.00,23.5,25.3,"19:05:52",1
"17/09/07","19:20",0.0,24.6,93.1,997.0,19.9,0.7,1.3,28.4,0.00,23.4,25.1,"19:18:32",1
"17/09/07","19:30",0.0,24.6,93.4,997.4,28.0,0.3,1.1,42.2,0.00,23.5,24.9,"19:20:48",1
"17/09/07","19:40",0.2,24.5,93.4,997.4,358.2,0.8,1.3,352.9,0.00,23.4,25.1,"19:35:36",1
"17/09/07","19:50",0.0,24.5,93.6,997.9,343.4,0.5,1.0,61.0,0.00,23.4,25.0,"19:40:32",1
"17/09/07","20:00",0.2,24.4,93.9,997.9,316.1,0.7,1.6,341.6,0.00,23.4,25.0,"19:54:00",1
"17/09/07","20:10",0.2,24.4,94.2,997.9,294.7,0.5,1.0,226.1,0.00,23.4,25.2,"20:00:56",1
"17/09/07","20:20",0.0,24.4,94.2,998.2,357.0,0.7,1.4,341.4,0.00,23.4,24.9,"20:18:08",1
"17/09/07","20:30",0.0,24.3,94.4,998.2,310.6,0.6,0.9,340.8,0.00,23.4,24.9,"20:25:36",1
"17/09/07","20:40",0.0,24.3,94.5,997.9,7.4,0.3,1.3,341.2,0.00,23.4,24.9,"20:30:24",1
"17/09/07","20:50",0.6,24.2,94.7,997.9,296.3,0.7,1.7,348.1,0.00,23.3,25.2,"20:43:52",1
"17/09/07","21:00",0.6,24.2,94.6,997.9,313.1,0.3,0.9,255.1,0.00,23.3,25.0,"20:59:36",1
"17/09/07","21:10",0.2,24.1,94.8,998.2,289.5,0.6,1.1,344.4,0.00,23.3,25.2,"21:09:20",1
"17/09/07","21:20",0.0,24.1,94.9,998.4,319.8,0.7,1.4,327.6,0.00,23.3,24.9,"21:11:36",1
"17/09/07","21:30",0.0,24.1,94.9,998.2,282.2,0.7,1.4,227.8,0.00,23.3,24.9,"21:23:28",1
"17/09/07","21:40",0.0,24.0,94.9,998.2,330.4,1.0,1.8,327.8,0.00,23.2,24.9,"21:38:32",1
"17/09/07","21:50",0.0,24.0,94.9,998.2,332.8,0.6,1.6,346.0,0.00,23.2,24.8,"21:43:20",1
"17/09/07","22:00",0.0,23.9,94.9,998.2,310.0,0.6,1.6,340.1,0.00,23.1,24.7,"21:50:24",1
"17/09/07","22:10",0.0,23.7,94.9,998.2,273.0,0.5,1.1,252.6,0.00,22.9,24.9,"22:09:04",1
"17/09/07","22:20",0.0,23.6,94.9,998.4,311.5,0.8,2.1,338.2,0.00,22.8,24.6,"22:16:08",1
"17/09/07","22:30",0.0,23.5,94.8,998.2,329.4,1.7,3.5,328.2,0.00,22.7,24.7,"22:27:20",1
"17/09/07","22:40",0.0,23.4,94.7,998.2,332.1,1.6,3.3,342.1,0.00,22.5,24.8,"22:38:40",1
"17/09/07","22:50",0.0,23.4,94.6,998.4,336.1,1.3,2.5,339.6,0.00,22.5,25.0,"22:47:12",1
"17/09/07","23:00",0.0,23.3,94.5,997.9,328.4,1.2,2.8,345.5,0.00,22.4,24.9,"22:54:24",1
"17/09/07","23:10",0.0,23.3,94.3,997.9,336.1,1.1,2.0,339.3,0.00,22.4,24.8,"23:06:32",1
"17/09/07","23:20",0.0,23.3,94.4,998.2,335.7,0.8,1.7,330.8,0.00,22.4,24.7,"23:11:12",1
"17/09/07","23:30",0.0,23.1,94.3,998.6,286.4,0.8,1.2,240.8,0.00,22.2,24.5,"23:24:08",1
"17/09/07","23:40",0.0,23.0,94.4,998.4,312.6,0.6,1.6,342.5,0.00,22.1,24.6,"23:35:28",1
"17/09/07","23:50",0.0,22.9,94.3,998.2,316.8,0.7,1.6,322.4,0.00,22.0,24.6,"23:48:32",1
"17/09/07","24:00",0.0,22.9,94.3,998.2,336.8,1.1,1.8,343.2,0.00,22.0,24.6,"23:51:36",1
